OBJECT K, 59809

Orbit data source: Space-Track

You're viewing an Uncataloged Satellite

Recently launched and/or uncataloged satellites may have evolving metadata. Metadata may include but not limited to: Owner, Maufacturer, Bus, Motor, and Mission.

OBJECT K, 59809 is a satellite owned by Sitronics (CIS) in SSO that was launched on Thu, 16 May 2024 UTC via a SOYUZ-2-1B launch vehicle from the Plesetsk Missile And Space Complex (PKMTR). Unknown objects in Earth's orbit typically refer to objects detected orbiting the Earth but have not yet been identified or cataloged. These objects could be anything from previously untracked satellites, spent rocket stages, debris from satellite collisions, or even natural meteoroids temporarily captured by Earth's gravity.

Loading next visibility...
Identifier
59809, 2024-092K
Orbit
SSO
Country
Flag of CISCIS
Related business
Manufacturer
Sputniks
Mission
Operational Commercial Communications
Bus & Motor
CUBESAT 3U?, Unknown motor
Mass
3 kg wet, 3 kg dry
Launch date (UTC)
2024-05-16 (2 years ago)
Launch vehicle
SOYUZ-2-1B
Launch site
Plesetsk Missile And Space Complex (PKMTR)
Object type
Unknown
Shape & HBR
Box, 0.1 m
Radar Cross Section
0.035 m², Small (<0.1 m²)

Expand to show TLE details & history
Last TLE update: 11 hours ago

TLE from 11 hours ago
0 OBJECT K
1 59809U 24092K   26125.29270897  .00025781  00000-0  75575-3 0  9993
2 59809  97.6519 256.4543 0006459 303.7006  56.3620 15.35161983108656
Epoch: 2026-05-05T07:01Z
TLE epoch observation values (Epoch: 2026-05-05T07:01:30.055Z)
Latitude
-0.00003°
Longitude
-72.09056°
Altitude
461.098 km
Speed
7.637 km/s
True Right ascension
17h 05m 49s
True Declination
0° 00' 00"
Sunlit
Object was in full shadow at epoch
Visualization orbit readout
Latitude
Unknown
Longitude
Unknown
Altitude
Unknown
Speed
Unknown
Apparent Right ascension
Unknown
Apparent Declination
Unknown
Sunlit
N/A
Visualization observer readout
Local Sidereal Time
01:56:05
Azimuth
Unknown
Elevation
Unknown
Doppler factor
Unknown
Orbital elements
Apogee altitude
461.811 km
Perigee altitude
452.981 km
Semi-major axis
6,835.533 km
Eccentricity
0.00065
Inclination
97.6519°
RAAN
256.4543°
Arg. of periapsis
303.7006°
True anomaly
56.42365°
Mean anomaly
56.362°
Eccentric anomaly
56.39282°
Mean motion
3.84047 °/min
Orbital period
93.74 mins
BSTAR
0.00075575
Loading maneuver chart data...
Computing Atmospheric mass density...
Loading historical data...
Loading historical data...
Loading historical data...
Loading historical data...
Loading historical data...
Loading historical data...
Loading historical data...

Documentation

Showing up to 5 results
|